Location: Haliburton Scout Reserve
(45.0900°N, 78.3200°W)
Time: 18:11:10
(UTC-04:00)

STRAND 1 - Pass Details

Date: 04 April 2023
Orbit: 767 x 779 km, 98.4° (Epoch: 06 June)

Event Time Altitude Azimuth Distance (km) Brightness Sun altitude
Rises 21:10:55 0° 3° (N) 3,249 ? -15.3°
Reaches altitude 10° 21:13:31 10° 352° (N) 2,318 ? -15.7°
Maximum altitude 21:17:45 27° 296° (WNW) 1,443 ? -16.4°
Drops below altitude 10° 21:21:58 10° 239° (WSW) 2,305 ? -17.1°
Sets 21:24:33 0° 228° (SW) 3,228 ? -17.5°
